Weather History for Asheboro, NC

Change the Weather History Date:

Wednesday, November 16, 2011

  Actual Average Record
Temperature  
Mean Temperature 68 °F -  
Max Temperature 71 °F 62 °F 83 °F (1958)
Min Temperature 64 °F 39 °F 21 °F (1969)
Cooling Degree Days 2    
Growing Degree Days 18 (Base 50)    
Moisture  
Dew Point 64 °F    
Average Humidity 87    
Maximum Humidity 100    
Minimum Humidity 73    
Precipitation  
Precipitation 0.09 in - - ()
Sea Level Pressure  
Sea Level Pressure 29.87 in    
Wind  
Wind Speed 7 mph (SSW)    
Max Wind Speed 16 mph    
Max Gust Speed 24 mph    
Visibility 8 miles    
Events Rain    
Averages and records for this station are not official NWS values.
T = Trace of Precipitation, MM = Missing Value Source: NWS Daily Summary

Daily Weather History Graph

Daily Weather History Graph

Search for Another Location

Airport:

Trip Planner

Search our weather history database for the weather conditions in past years. The results will help you decide how hot, cold, wet, or windy it might be!

Date:

Astronomy

Nov. 16, 2011 Rise Set
Actual Time 6:56 AM EST 5:12 PM EST
Civil Twilight 6:28 AM EST 5:39 PM EST
Nautical Twilight 5:58 AM EST 6:10 PM EST
Astronomical Twilight 5:27 AM EST 6:40 PM EST
Moon 10:22 PM EST (11/16) 11:32 AM EST (11/16)
Length of Visible Light 11h 10m
Length of Day
10h 16m
Waning Gibbous, 70% of the Moon is Illuminated
Nov 16
Waning Gibbous
Nov 18
Last Quarter
Nov 25
New
Dec 2
First Quarter
Dec 10
Full

Hourly Weather History & Observations

Time (EST) Temp. Dew Point Humidity Pressure Visibility Wind Dir Wind Speed Gust Speed Precip Events Conditions
12:15 AM 68.0 °F 62.6 °F 83% 29.98 in 10.0 mi South 5.8 mph - N/A   Light Drizzle
12:35 AM 68.0 °F 62.6 °F 83% 29.98 in 10.0 mi SSW 6.9 mph - N/A   Overcast
1:15 AM 66.2 °F 62.6 °F 88% 29.97 in 10.0 mi SSW 5.8 mph - N/A   Scattered Clouds
1:35 AM 66.2 °F 62.6 °F 88% 29.97 in 10.0 mi SW 5.8 mph - N/A   Mostly Cloudy
1:55 AM 64.4 °F 62.6 °F 94% 29.97 in 10.0 mi SW 4.6 mph - N/A   Overcast
2:15 AM 64.4 °F 62.6 °F 94% 29.96 in 10.0 mi South 3.5 mph - N/A   Overcast
2:35 AM 64.4 °F 62.6 °F 94% 29.96 in 7.0 mi SSW 4.6 mph - N/A   Overcast
2:55 AM 64.4 °F 62.6 °F 94% 29.95 in 7.0 mi SSW 4.6 mph - N/A   Overcast
3:15 AM 64.4 °F 62.6 °F 94% 29.94 in 7.0 mi SSW 3.5 mph - N/A   Overcast
3:35 AM 64.4 °F 64.4 °F 100% 29.93 in 7.0 mi SSW 3.5 mph - N/A   Overcast
3:55 AM 64.4 °F 64.4 °F 100% 29.93 in 7.0 mi SSW 3.5 mph - N/A   Overcast
4:15 AM 66.2 °F 64.4 °F 94% 29.92 in 7.0 mi South 4.6 mph - N/A   Overcast
4:35 AM 66.2 °F 64.4 °F 94% 29.92 in 7.0 mi South 6.9 mph - N/A Rain Rain
4:55 AM 66.2 °F 64.4 °F 94% 29.92 in 7.0 mi South 5.8 mph - N/A   Overcast
5:15 AM 66.2 °F 64.4 °F 94% 29.91 in 5.0 mi South 6.9 mph - N/A   Overcast
5:55 AM 66.2 °F 64.4 °F 94% 29.90 in 5.0 mi SSW 8.1 mph - N/A   Overcast
6:15 AM 66.2 °F 64.4 °F 94% 29.91 in 5.0 mi South 6.9 mph - N/A   Overcast
6:35 AM 66.2 °F 64.4 °F 94% 29.92 in 5.0 mi SSW 10.4 mph - N/A   Overcast
7:15 AM 66.2 °F 64.4 °F 94% 29.92 in 5.0 mi SSW 11.5 mph - N/A   Overcast
7:35 AM 66.2 °F 64.4 °F 94% 29.92 in 5.0 mi South 6.9 mph - N/A   Overcast
7:55 AM 66.2 °F 64.4 °F 94% 29.92 in 4.0 mi South 11.5 mph - N/A   Overcast
8:15 AM 66.2 °F 64.4 °F 94% 29.92 in 5.0 mi SSW 8.1 mph - N/A   Overcast
9:15 AM 68.0 °F 64.4 °F 88% 29.92 in 7.0 mi SSW 10.4 mph 18.4 mph N/A   Overcast
9:35 AM 68.0 °F 64.4 °F 88% 29.91 in 7.0 mi SSW 9.2 mph - N/A Rain Light Rain
9:55 AM 68.0 °F 64.4 °F 88% 29.91 in 7.0 mi SSW 12.7 mph 17.3 mph N/A   Overcast
10:15 AM 68.0 °F 64.4 °F 88% 29.92 in 10.0 mi SSW 10.4 mph - N/A   Mostly Cloudy
10:35 AM 68.0 °F 64.4 °F 88% 29.90 in 10.0 mi SSW 11.5 mph - N/A   Mostly Cloudy
10:55 AM 68.0 °F 64.4 °F 88% 29.90 in 10.0 mi SSW 10.4 mph - N/A   Mostly Cloudy
11:15 AM 68.0 °F 64.4 °F 88% 29.89 in 10.0 mi SSW 9.2 mph - N/A   Mostly Cloudy
11:35 AM 68.0 °F 64.4 °F 88% 29.88 in 10.0 mi SSW 5.8 mph 17.3 mph N/A Rain Light Rain
11:55 AM 68.0 °F 64.4 °F 88% 29.87 in 7.0 mi South 9.2 mph - 0.01 in Rain Light Rain
12:15 PM 68.0 °F 64.4 °F 88% 29.86 in 10.0 mi SSW 8.1 mph - N/A Rain Light Rain
12:35 PM 69.8 °F 64.4 °F 83% 29.86 in 10.0 mi SSW 12.7 mph 19.6 mph N/A   Overcast
12:55 PM 69.8 °F 64.4 °F 83% 29.85 in 10.0 mi SSW 16.1 mph 21.9 mph 0.01 in Rain Light Rain
1:15 PM 69.8 °F 64.4 °F 83% 29.84 in 10.0 mi SW 12.7 mph 20.7 mph N/A   Mostly Cloudy
1:35 PM 69.8 °F 64.4 °F 83% 29.83 in 5.0 mi SW 11.5 mph 17.3 mph 0.02 in Rain Rain
1:55 PM 68.0 °F 66.2 °F 94% 29.83 in 5.0 mi SSW 10.4 mph 17.3 mph 0.03 in Rain Light Rain
2:15 PM 68.0 °F 66.2 °F 94% 29.82 in 4.0 mi SW 5.8 mph - 0.03 in Rain Rain
2:35 PM 68.0 °F 66.2 °F 94% 29.81 in 5.0 mi SSW 4.6 mph - 0.04 in Rain Light Rain
2:55 PM 68.0 °F 66.2 °F 94% 29.81 in 5.0 mi SW 4.6 mph - 0.04 in   Overcast
3:15 PM 68.0 °F 66.2 °F 94% 29.80 in 7.0 mi SSW 6.9 mph - N/A   Overcast
3:35 PM 69.8 °F 64.4 °F 83% 29.80 in 10.0 mi SW 6.9 mph - N/A   Mostly Cloudy
3:55 PM 69.8 °F 64.4 °F 83% 29.79 in 10.0 mi SSW 5.8 mph - N/A   Scattered Clouds
4:15 PM 71.6 °F 64.4 °F 78% 29.80 in 10.0 mi SSW 9.2 mph - N/A   Scattered Clouds
4:35 PM 71.6 °F 62.6 °F 73% 29.79 in 10.0 mi SSW 12.7 mph 16.1 mph N/A   Scattered Clouds
4:55 PM 71.6 °F 62.6 °F 73% 29.78 in 10.0 mi South 8.1 mph 16.1 mph N/A   Clear
5:15 PM 71.6 °F 62.6 °F 73% 29.77 in 10.0 mi South 8.1 mph - N/A   Clear
5:35 PM 71.6 °F 62.6 °F 73% 29.76 in 10.0 mi South 9.2 mph - N/A   Clear
5:55 PM 71.6 °F 62.6 °F 73% 29.78 in 10.0 mi South 8.1 mph - N/A   Scattered Clouds
6:15 PM 71.6 °F 62.6 °F 73% 29.78 in 10.0 mi South 9.2 mph - N/A Rain Light Rain
6:55 PM 69.8 °F 64.4 °F 83% 29.80 in 10.0 mi SSW 6.9 mph 16.1 mph N/A Rain Light Rain
7:15 PM 69.8 °F 64.4 °F 83% 29.79 in 10.0 mi SSW 10.4 mph - N/A   Mostly Cloudy
7:35 PM 69.8 °F 64.4 °F 83% 29.79 in 10.0 mi SSW 11.5 mph 19.6 mph N/A   Scattered Clouds
7:55 PM 69.8 °F 64.4 °F 83% 29.81 in 10.0 mi SSW 13.8 mph - N/A   Scattered Clouds
8:15 PM 69.8 °F 64.4 °F 83% 29.81 in 10.0 mi SSW 8.1 mph 17.3 mph N/A   Clear
8:35 PM 69.8 °F 64.4 °F 83% 29.79 in 10.0 mi South 12.7 mph 17.3 mph N/A   Clear
8:55 PM 69.8 °F 62.6 °F 78% 29.78 in 10.0 mi South 12.7 mph 24.2 mph N/A   Clear
9:15 PM 69.8 °F 64.4 °F 83% 29.81 in 10.0 mi SW 11.5 mph 17.3 mph N/A   Clear
9:35 PM 69.8 °F 62.6 °F 78% 29.81 in 10.0 mi SW 12.7 mph 17.3 mph N/A   Scattered Clouds
9:55 PM 69.8 °F 62.6 °F 78% 29.81 in 10.0 mi SW 9.2 mph - N/A   Mostly Cloudy
10:15 PM 69.8 °F 62.6 °F 78% 29.83 in 10.0 mi NNW 10.4 mph - N/A   Overcast
10:35 PM 62.6 °F 59.0 °F 88% 29.84 in 10.0 mi North 9.2 mph 16.1 mph N/A Rain Light Rain
10:55 PM 59.0 °F 55.4 °F 88% 29.86 in 10.0 mi North 10.4 mph - N/A   Overcast
11:15 PM 55.4 °F 53.6 °F 94% 29.86 in 10.0 mi North 9.2 mph - N/A   Overcast
11:35 PM 55.4 °F 53.6 °F 94% 29.87 in 10.0 mi North 8.1 mph - N/A Rain Light Rain
11:55 PM 55.4 °F 53.6 °F 94% 29.87 in 7.0 mi NNE 6.9 mph - 0.06 in Rain Heavy Rain